Weather observations for the past three days for
Key West International Airport
Metric (Imperial)
Date Time (edt) Wind (kph) Vis. (km) Weather Sky Cond. Temperature (ºC) Relative Humidity Wind Chill (°C) Heat Index (°C) Pressure Precipitation (cm)
Air Dwpt 6 hour altimeter (cm) sea level (mb) 1 hr 3 hr 6 hr
Max. Min.
03 21:53 Calm 16.09 Overcast FEW013 BKN020 OVC055 27.2 23.3 79% 30 76.15 1015.6 0.03
03 20:53 Calm 16.09 Light Rain OVC060 27.8 21.7 69% 30 76.1 1015.0
03 19:53 N 7 16.09 Overcast SCT023 OVC100 28.3 22.2 30 27.8 70% 31 76.05 1014.6
03 18:53 NE 13 16.09 Overcast BKN030 OVC100 28.3 22.2 70% 31 76 1013.9
03 17:53 NE 15 16.09 Mostly Cloudy FEW012 BKN120 28.3 22.2 70% 31 76 1013.8
03 16:53 N 15 16.09 Partly Cloudy SCT025 SCT100 28.9 22.2 67% 32 76.02 1014.2
03 15:53 N 20 16.09 Partly Cloudy SCT014 29.4 22.8 68% 33 76.07 1014.7
03 14:53 N 15 16.09 Overcast FEW017 SCT024 OVC110 28.9 22.8 70% 32 76.12 1015.5
03 13:53 N 15 16.09 Mostly Cloudy SCT039 BKN120 27.8 22.8 28.9 27.8 74% 31 76.17 1016.2
03 12:53 N 15 16.09 Overcast SCT014 BKN019 OVC026 28.3 23.3 74% 32 76.2 1016.3
03 11:53 N 11 16.09 Mostly Cloudy FEW015 BKN022 BKN030 28.3 23.3 74% 32 76.23 1016.8
03 10:53 N 11 16.09 Partly Cloudy SCT014 SCT020 28.3 23.9 77% 32 76.23 1016.6
03 09:53 NW 9 16.09 Partly Cloudy SCT017 27.8 24.4 82% 32 76.17 1016.2
03 08:53 SW 13 16.09 Partly Cloudy SCT010 28.9 25.6 82% 35 76.12 1015.3
03 07:53 SW 11 16.09 Fair CLR 28.3 24.4 28.9 26.1 79% 33 76.02 1014.0 0.25
03 06:53 SW 11 16.09 Fair CLR 28.3 24.4 79% 33 75.97 1013.2 0.03
03 05:53 Calm 16.09 Light Rain FEW080 SCT100 BKN120 27.8 23.9 79% 32 76 1013.9 0.03
03 04:53 Calm 12.87 Light Rain FEW090 BKN110 26.7 22.8 79% 29 76.02 1014.0 0.2
03 03:53 Calm 11.27 Rain FEW046 BKN095 OVC120 26.7 22.8 79% 29 76 1013.8 0.08
03 02:53 Calm 16.09 Light Rain FEW055 SCT080 BKN100 27.2 23.3 79% 30 76.07 1014.7 0.13
03 01:53 Calm 14.48 Mostly Cloudy BKN043 28.9 24.4 29.4 28.9 77% 34 76.1 1015.1
03 00:53 Calm 16.09 Partly Cloudy FEW038 SCT100 28.9 23.9 74% 33 76.12 1015.3
02 23:53 Calm 16.09 Partly Cloudy SCT023 28.9 22.2 67% 32 76.15 1015.6
02 22:53 Calm 16.09 A Few Clouds FEW055 28.9 22.8 70% 32 76.07 1014.9
02 21:53 Calm 16.09 Mostly Cloudy BKN050 28.9 24.4 77% 34 76.05 1014.4
02 20:53 Calm 16.09 A Few Clouds FEW100 28.9 23.3 72% 33 76.02 1014.1
02 19:53 S 6 16.09 Fair CLR 28.9 23.3 30.6 28.9 72% 33 75.97 1013.3
02 18:53 S 6 16.09 Fair CLR 29.4 23.3 70% 34 75.9 1012.5
02 17:53 S 7 16.09 Fair CLR 29.4 23.3 70% 34 75.9 1012.3
02 16:53 SW 11 16.09 Fair CLR 30 23.3 67% 34 75.87 1011.9
02 15:53 SW 11 16.09 Fair CLR 29.4 23.9 72% 34 75.92 1012.6
02 14:53 SW 15 16.09 Partly Cloudy SCT017 30 23.9 70% 35 75.97 1013.3
02 13:53 S 15 16.09 A Few Clouds FEW020 30 23.3 30 28.3 67% 34 75.97 1013.3
02 12:53 SW 20 16.09 Fair CLR 29.4 23.3 70% 34 75.97 1013.5
02 11:53 SW 20 16.09 Fair CLR 29.4 23.3 70% 34 76 1013.8
02 10:53 SW 17 16.09 Fair CLR 29.4 23.3 70% 34 76 1013.7
02 09:53 SW 19 16.09 A Few Clouds FEW016 29.4 23.9 72% 34 75.97 1013.5
02 08:53 SW 17 16.09 Fair CLR 28.9 23.3 72% 33 75.97 1013.2
02 07:53 SW 17 16.09 A Few Clouds FEW015 28.3 23.9 28.3 27.8 77% 32 75.95 1013.0
02 06:53 S 17 9.66 A Few Clouds with Haze FEW013 27.8 23.9 79% 32 75.92 1012.6
02 05:53 Calm 16.09 Mostly Cloudy BKN016 28.3 23.9 77% 32 75.9 1012.3
02 04:53 Calm 16.09 Fair CLR 28.3 22.8 72% 32 75.9 1012.4
02 03:53 Calm 16.09 Fair CLR 28.3 22.8 72% 32 75.9 1012.5
02 02:53 Calm 16.09 Partly Cloudy SCT055 28.3 23.3 74% 32 75.92 1012.6
02 01:53 Calm 16.09 Mostly Cloudy SCT055 BKN065 28.3 22.8 28.9 28.3 72% 32 75.92 1012.7
02 00:53 Calm 16.09 Mostly Cloudy BKN060 28.3 23.3 74% 32 75.97 1013.5
01 23:53 Calm 16.09 Mostly Cloudy BKN060 28.3 22.8 72% 32 76 1013.7
01 22:53 Calm 16.09 Fair CLR 28.3 21.7 67% 31 75.97 1013.3
01 21:53 Calm 16.09 Fair CLR 28.3 21.7 67% 31 75.95 1013.0
01 20:53 E 11 16.09 Fair CLR 28.3 21.1 65% 31 75.87 1012.1
01 19:53 N 9 16.09 Fair CLR 28.9 20.6 30.6 28.9 61% 31 75.82 1011.4
01 18:53 N 7 16.09 Fair CLR 30.6 20.6 55% 33 75.79 1011.2
01 17:53 SE 13 16.09 Fair CLR 29.4 21.1 61% 32 75.82 1011.3
01 16:53 SE 11 16.09 Fair CLR 29.4 21.1 61% 32 75.87 1011.9
01 15:53 SE 9 16.09 Fair CLR 29.4 21.1 61% 32 75.92 1012.7
01 14:53 S 11 16.09 Fair CLR 29.4 21.1 61% 32 75.97 1013.3
01 13:53 SE 11 16.09 Fair CLR 28.9 21.1 30 27.2 63% 31 76 1013.7
01 12:53 SE 9 16.09 Fair CLR 28.9 21.1 63% 31 76.05 1014.2
01 11:53 SE 11 16.09 Fair CLR 28.9 21.1 63% 31 76.05 1014.4
01 10:53 SE 9 16.09 Fair CLR 28.3 21.1 65% 31 76.02 1014.1
01 09:53 SE 11 16.09 A Few Clouds FEW032 28.3 21.1 65% 31 76.02 1014.1
01 08:53 SE 9 16.09 Partly Cloudy FEW024 SCT032 27.8 21.1 67% 30 76.02 1014.1
01 07:53 Calm 16.09 Partly Cloudy SCT022 27.2 21.1 27.2 25 69% 29 76.02 1014.1
01 06:53 Calm 16.09 Partly Cloudy SCT023 26.1 21.1 74% 28 75.97 1013.3
01 05:53 Calm 16.09 Fair CLR 25.6 20.6 74% 27 75.92 1012.8
01 04:53 S 6 16.09 Fair CLR 26.7 20.6 69% 28 75.92 1012.8
01 03:53 SE 6 16.09 Fair CLR 26.7 20.6 69% 28 75.92 1012.7
01 02:53 S 6 16.09 Partly Cloudy SCT023 26.1 21.7 77% 28 75.95 1012.9
01 01:53 Calm 16.09 Fair CLR 25.6 21.7 28.3 25.6 79% 27 75.97 1013.4
01 00:53 Calm 16.09 Fair CLR 26.1 22.2 79% 28 76 1013.7
30 23:53 Calm 16.09 Fair CLR 26.1 21.1 74% 28 76 1013.9
Date Time (edt) Wind (kph) Vis. (km) Weather Sky Cond. Air Dwpt Max. Min. Relative Humidity Wind Chill (°C) Heat Index (°C) altimeter (cm) sea level (mb) 1 hr 3 hr 6 hr
6 hour
Temperature (ºC) Pressure Precipitation (cm)